GEFSNE_500_meanwind_162.txt.gz
Wind_Speed
14 15 16 17 18 18 19 19 20 21 22 23 23 24 24 24 25 25 25 25 26 27 27 28 28 28 28 29 29 29 30 30 30 30 31 32 32 33
16 16 17 18 18 19 20 20 21 22 22 23 25 25 25 26 25 25 26 27 28 28 29 29 30 31 31 31 31 31 31 31 32 32 33 33 34 34
17 17 18 18 19 19 19 20 21 22 23 25 26 26 26 26 26 28 29 29 29 30 31 31 31 32 33 34 34 33 33 34 35 35 36 37 37 37
18 19 19 19 20 20 20 21 22 23 24 25 27 27 27 28 28 29 30 30 31 31 32 33 34 34 34 35 34 34 35 36 37 37 38 38 38 38
19 19 20 20 21 21 22 23 24 25 26 26 27 28 28 28 29 30 30 30 31 31 32 32 33 34 35 35 35 35 36 37 37 38 38 38 39 39
20 20 20 21 22 22 23 24 26 27 27 28 28 29 29 30 30 30 30 31 31 31 32 33 33 33 33 35 35 36 37 37 39 40 40 40 41 41
21 21 22 23 23 24 25 26 27 28 28 29 30 30 30 31 31 32 32 32 32 33 34 34 34 35 35 36 37 37 38 39 39 40 41 41 41 42
22 23 24 25 25 26 27 28 29 30 30 30 30 31 31 32 32 32 33 33 34 34 35 35 36 36 36 35 36 37 38 39 40 41 41 41 42 42
24 25 25 26 26 27 28 29 29 30 30 30 31 31 32 32 33 34 35 36 36 36 37 37 37 37 36 37 38 39 39 40 41 41 42 42 42 43
24 25 26 27 28 28 28 29 30 30 31 32 33 33 33 33 34 35 36 36 37 37 38 38 38 38 38 39 39 39 40 41 41 42 42 42 42 42
26 27 28 28 29 30 30 31 32 32 33 33 34 34 34 35 35 35 36 37 37 37 37 37 38 38 38 38 39 39 40 41 41 41 42 42 42 42
27 28 29 30 31 32 32 33 33 34 34 34 34 35 35 36 36 37 37 37 37 37 37 37 38 38 38 38 38 39 39 39 40 40 41 42 42 42
29 29 30 31 32 32 33 33 34 34 34 34 34 34 35 36 37 37 37 37 36 36 36 37 37 37 37 38 38 38 38 38 39 39 39 40 40 39
31 31 31 31 32 33 33 33 33 33 34 34 34 34 35 35 35 35 35 36 35 35 35 36 36 36 36 36 36 37 37 37 38 38 37 37 37 37
32 32 32 31 32 33 33 33 33 33 33 33 34 34 34 34 34 34 34 33 33 34 34 35 35 35 35 35 36 36 36 36 37 37 36 35 35 34
32 32 32 33 34 34 34 33 33 33 33 33 33 34 33 33 33 33 33 33 33 33 34 34 35 35 35 35 35 34 35 35 35 35 34 34 33 33
33 33 33 34 35 35 34 34 34 33 33 34 34 33 33 33 33 33 33 33 33 33 33 33 33 34 34 34 34 34 34 34 33 33 33 32 32 32
34 34 34 35 34 34 34 34 33 34 34 34 34 33 33 32 33 33 33 33 33 33 33 33 32 33 33 32 32 32 32 32 32 32 32 31 31 31
34 34 35 35 34 33 33 33 33 33 33 33 33 32 32 32 32 32 32 33 33 32 31 31 31 30 30 30 30 30 30 30 31 30 30 31 30 30
33 33 33 32 32 32 32 32 32 32 32 32 32 31 31 31 31 31 31 31 30 30 29 29 28 29 29 29 29 29 29 30 30 29 29 29 29 29
32 31 31 31 31 32 32 31 31 31 31 31 31 31 30 30 30 29 29 28 28 28 28 28 28 28 28 29 29 28 28 28 28 28 28 27 27 27
30 30 30 30 31 31 30 31 31 31 31 31 30 29 29 28 28 28 28 28 27 27 27 27 28 28 28 28 28 28 27 27 27 27 27 26 26 26
29 29 30 30 31 30 30 31 31 31 31 30 28 28 27 26 26 27 27 27 27 27 27 27 27 27 28 28 27 27 26 26 25 25 25 25 25 25

GEFSNE_500_meanwind_168.txt.gz
Wind_Speed
15 16 17 17 17 17 18 18 18 18 18 19 20 21 21 21 22 23 23 23 24 25 27 27 29 30 29 30 31 31 31 31 32 32 32 32 33 33
16 16 17 17 17 18 18 18 19 19 19 20 21 22 22 22 23 23 25 26 27 28 29 29 30 30 31 32 31 31 32 33 33 34 34 35 35 36
16 16 17 18 17 18 18 19 19 20 21 22 23 23 24 24 24 25 26 27 28 29 30 30 31 32 31 32 32 32 32 33 34 35 36 36 37 37
17 16 17 17 18 19 20 20 21 21 22 23 24 25 25 26 26 27 28 28 29 30 30 31 32 32 32 32 32 33 34 35 35 36 37 37 36 37
18 18 18 19 20 21 21 22 22 23 23 24 25 26 27 27 28 29 29 30 31 32 32 33 33 32 33 33 34 34 34 36 36 36 37 38 38 39
19 19 19 20 21 21 21 22 24 24 25 26 26 27 28 28 29 30 30 31 32 32 33 33 33 34 34 34 35 35 36 37 37 38 38 38 39 39
19 20 21 21 22 22 23 24 25 26 26 27 27 28 28 29 30 31 32 32 33 33 34 34 35 35 36 36 36 37 37 38 38 39 39 39 40 41
20 20 21 22 23 23 24 25 25 26 27 28 28 28 29 30 31 32 32 33 34 34 34 35 35 36 36 37 37 38 38 39 40 40 40 39 40 41
20 21 21 22 23 24 24 25 26 26 27 29 29 30 31 32 32 33 33 34 34 34 35 35 36 36 37 38 38 39 39 40 40 40 39 40 40 40
20 21 22 23 24 25 26 26 26 27 28 29 30 32 32 32 32 33 34 34 34 35 35 36 37 37 38 38 39 39 39 39 40 40 40 40 40 40
22 22 23 24 25 25 26 27 27 28 28 29 30 31 32 32 33 33 34 34 34 35 35 36 37 37 38 37 38 39 39 39 39 39 39 39 39 39
23 24 25 25 26 27 27 27 28 28 29 30 31 31 31 32 32 33 34 34 35 35 35 36 36 36 36 36 37 37 38 38 38 38 38 38 38 38
24 25 26 27 27 27 28 28 29 29 30 31 32 32 33 33 33 33 34 34 34 34 35 35 35 35 36 36 36 36 36 36 36 36 36 36 36 37
26 27 28 28 28 28 29 30 30 30 32 33 33 33 33 33 33 34 34 34 34 34 34 34 34 34 34 34 34 34 34 35 35 35 35 36 35 35
27 27 28 29 29 30 30 31 31 31 32 33 33 33 33 33 34 34 34 34 34 33 33 33 34 34 34 34 34 34 34 34 34 34 34 34 33 33
28 29 29 30 30 31 31 31 31 32 32 33 33 33 34 34 33 33 32 32 33 33 33 33 33 33 32 32 32 32 32 32 32 32 32 31 31 32
29 29 30 31 31 31 31 31 31 32 32 33 33 33 33 33 32 31 31 31 32 32 32 32 31 31 30 30 29 29 29 30 30 29 30 30 31 31
30 30 30 31 30 31 30 31 31 32 33 33 33 32 31 30 30 30 31 31 31 31 30 30 29 29 28 28 28 28 28 28 29 29 29 29 30 30
30 31 31 30 30 30 30 31 32 32 32 32 32 31 30 29 29 30 30 29 28 28 27 28 27 26 26 26 27 27 28 28 28 28 29 29 28 28
31 31 31 30 29 29 30 30 31 31 31 31 30 30 29 29 29 29 29 28 27 27 26 26 26 26 26 26 27 27 27 27 28 28 28 28 28 28
31 31 31 30 29 30 30 30 31 31 30 30 30 30 29 29 29 28 28 27 27 27 26 26 26 25 25 26 26 26 27 27 28 28 27 27 27 27
31 31 31 30 30 30 30 30 31 31 30 30 30 29 29 29 29 28 28 27 26 26 26 26 26 26 26 26 26 27 27 28 28 28 27 27 26 26
30 30 30 30 30 30 30 30 30 30 30 30 29 29 29 29 28 28 27 27 26 26 26 26 26 27 27 27 27 27 27 27 27 27 27 27 27 26

GEFSNE_500_meanwind_174.txt.gz
Wind_Speed
16 16 16 17 18 19 19 19 19 19 19 21 22 23 23 24 25 26 26 27 26 26 27 29 30 30 31 31 32 31 31 32 32 33 33 34 34 35
16 17 17 18 18 19 19 20 20 20 21 23 24 24 24 24 25 25 27 27 28 28 29 29 30 31 32 33 33 33 33 34 34 34 34 34 34 36
17 18 19 19 19 19 19 21 22 22 23 24 25 26 26 26 27 28 29 29 29 29 30 32 32 33 33 34 34 34 34 34 35 35 35 35 36 36
18 18 19 19 20 20 21 22 23 24 25 26 26 27 27 28 29 29 30 30 31 31 31 32 33 34 34 34 34 35 34 35 35 36 36 36 37 37
18 19 20 20 21 22 23 23 24 25 26 27 28 28 29 29 30 31 31 31 32 32 33 33 34 34 35 35 35 36 36 36 36 37 37 37 38 38
19 19 20 21 22 22 24 25 26 27 27 28 29 29 30 30 31 32 32 33 33 34 34 35 35 36 36 36 36 36 36 36 36 37 38 38 39 39
20 20 21 22 23 24 25 26 27 27 27 28 29 30 31 31 32 32 33 34 34 34 35 36 36 37 37 36 36 37 37 37 38 38 39 39 39 39
21 22 23 24 25 26 26 27 27 27 29 29 30 31 31 32 33 33 34 35 35 35 36 37 37 36 37 37 37 38 38 38 38 38 39 39 39 39
23 24 25 25 26 26 26 27 28 29 29 30 30 31 32 32 33 34 34 35 36 36 37 37 37 37 37 37 37 37 38 38 39 40 39 38 38 38
24 25 25 25 26 26 27 28 29 29 30 30 31 32 33 34 34 35 35 36 36 36 37 37 38 38 38 37 37 37 38 39 39 40 40 39 39 40
24 25 26 27 27 27 28 29 30 31 31 32 32 33 34 34 34 35 35 36 37 37 38 38 38 37 37 37 37 37 38 39 39 39 39 38 38 39
25 26 27 28 28 29 30 31 31 31 32 33 33 34 35 35 35 35 36 36 37 37 37 37 37 37 37 37 37 37 37 37 38 38 38 37 37 36
27 28 28 28 29 29 30 31 32 33 33 34 35 35 35 35 35 36 36 36 36 37 37 37 36 36 36 36 36 36 36 35 35 36 35 35 34 33
29 29 29 29 30 30 31 32 32 33 34 35 35 35 35 35 35 35 35 35 35 35 36 36 35 35 35 34 34 34 34 34 33 33 32 32 31 31
30 30 30 30 31 31 32 33 33 34 34 34 35 35 34 35 35 35 35 35 34 34 34 33 34 33 33 33 33 32 32 32 31 30 30 30 29 29
31 31 31 31 32 33 33 33 33 33 34 34 34 34 34 34 34 34 34 34 33 33 33 33 32 31 31 31 31 30 30 29 29 29 29 29 28 28
32 32 32 33 33 33 34 34 34 33 33 33 33 34 34 34 33 33 33 33 33 32 32 31 31 30 29 29 29 28 28 28 28 28 28 28 28 28
33 33 33 34 33 33 34 34 33 33 34 33 33 33 33 33 33 32 32 32 32 31 30 30 30 29 28 27 28 28 28 28 28 27 27 27 27 27
34 34 33 33 33 34 34 34 33 33 34 33 33 33 33 33 32 32 32 32 31 30 30 29 28 28 28 28 28 28 28 28 28 27 27 27 27 27
34 34 34 34 34 34 34 33 33 33 33 33 33 33 33 33 33 32 31 31 31 30 29 28 28 28 28 28 28 28 28 28 27 27 27 27 27 27
34 34 34 34 34 34 33 33 32 33 33 33 32 32 32 32 31 30 30 29 29 29 29 28 28 28 28 28 28 28 28 27 27 27 27 27 27 27
34 34 34 34 34 33 33 32 32 32 32 31 31 31 31 30 29 29 29 29 29 29 28 28 28 28 27 27 27 26 26 27 27 27 27 27 27 26
32 32 33 33 32 32 32 31 31 31 31 31 30 29 29 29 29 29 29 29 29 28 28 28 28 28 27 27 26 26 27 27 27 28 28 28 27 27

GEFSNE_500_meanwind_180.txt.gz
Wind_Speed
16 16 16 17 18 18 19 19 20 20 21 21 22 23 23 23 23 25 25 26 27 28 28 28 28 27 28 28 29 30 31 31 32 32 33 33 33 33
16 16 17 18 19 20 20 20 20 21 22 22 23 24 24 25 25 26 26 27 28 28 29 29 29 29 30 30 31 31 32 32 33 33 33 34 34 33
17 18 18 19 19 20 21 21 22 21 22 23 24 25 26 27 27 28 28 29 29 30 30 31 32 32 32 32 33 33 33 33 34 33 33 34 35 35
18 19 19 20 21 21 21 21 21 22 23 24 25 26 27 27 28 29 30 30 30 31 32 32 33 33 34 34 34 34 34 34 34 34 34 35 36 36
18 18 19 19 20 21 22 22 22 23 25 26 26 27 28 28 28 29 30 31 31 32 33 33 34 34 35 34 34 34 34 35 35 36 35 35 36 36
19 20 20 21 21 21 22 23 24 25 26 27 27 28 29 29 30 30 31 32 33 33 33 34 34 34 35 35 36 36 35 35 36 36 36 36 36 36
20 21 22 23 23 24 24 24 25 27 28 28 28 29 30 30 30 31 32 33 33 34 34 34 34 35 35 36 36 36 36 36 37 37 37 36 36 36
22 23 24 25 25 26 26 26 27 28 28 28 29 30 30 30 31 31 32 33 33 34 35 35 35 35 36 36 36 37 37 37 37 37 36 36 37 37
24 24 24 25 26 27 27 27 28 29 29 29 29 30 31 31 31 32 33 34 34 35 36 36 36 36 36 37 37 37 38 38 37 37 36 36 36 37
24 25 25 26 26 26 27 28 29 29 30 30 31 31 32 32 33 33 34 35 35 35 35 36 37 37 37 37 37 38 37 37 36 36 35 35 36 37
25 25 26 26 26 26 27 28 30 30 30 31 32 33 33 33 33 34 34 35 34 35 35 36 37 37 37 37 36 36 36 35 35 35 35 34 35 35
26 26 27 28 28 28 29 30 31 31 31 32 32 32 33 33 33 34 34 34 35 36 36 36 36 36 36 36 35 35 34 34 33 33 33 33 33 33
26 27 28 29 29 30 31 31 31 31 32 33 33 33 33 33 33 33 34 35 35 36 36 36 35 35 35 35 34 34 33 33 33 33 32 32 31 31
27 27 28 29 29 30 31 31 31 32 32 33 33 33 33 33 33 33 34 35 35 35 35 34 34 34 34 34 34 33 33 33 33 32 31 30 30 29
28 28 30 31 32 32 32 32 32 32 33 33 32 32 32 32 32 32 33 34 35 34 33 32 32 33 33 33 34 33 33 32 31 31 30 29 28 28
29 30 32 32 33 33 32 32 33 33 33 32 32 32 32 32 32 33 34 34 34 33 32 32 32 33 33 33 33 32 31 30 30 29 27 27 27 28
31 32 33 33 34 34 34 34 34 34 33 33 32 32 32 33 33 34 34 34 34 34 33 33 33 32 32 32 32 31 30 29 29 28 27 27 28 28
33 33 33 34 34 34 34 34 34 33 33 33 33 32 32 33 33 34 34 34 34 33 33 33 32 32 31 30 29 29 29 29 28 27 27 27 27 27
33 33 34 34 34 34 34 34 34 34 34 33 33 33 33 33 33 33 33 32 32 32 32 31 31 30 29 29 29 29 29 28 28 27 27 27 27 27
34 34 34 34 35 35 35 35 35 34 34 33 33 33 33 32 32 32 31 31 31 31 31 30 29 29 29 29 29 29 28 28 27 27 27 27 26 26
33 33 34 34 34 34 34 34 34 34 33 33 32 32 32 31 31 31 31 31 31 31 30 30 29 29 29 29 28 29 28 27 27 27 27 26 27 27
33 33 34 34 34 34 34 34 33 32 32 32 32 31 31 31 31 31 31 31 31 30 30 30 30 29 29 28 28 28 27 27 27 27 27 27 27 27
32 33 33 33 33 33 33 33 32 32 31 32 32 31 31 31 30 31 30 31 30 30 30 30 29 29 28 29 29 28 27 28 28 28 27 27 27 27

GEFSNE_500_meanwind_186.txt.gz
Wind_Speed
16 16 17 17 18 18 19 19 20 20 20 21 21 22 22 22 22 22 23 23 24 25 26 26 26 27 27 27 28 28 28 29 30 30 31 31 32 32
16 17 17 17 18 19 19 19 20 21 21 22 23 24 24 24 23 23 23 24 25 25 26 26 27 28 28 29 29 29 30 31 32 32 33 33 32 32
16 16 17 18 18 19 19 20 21 22 23 23 25 24 24 24 24 25 25 26 26 27 27 27 28 29 30 30 30 31 31 32 33 33 33 33 33 33
17 17 18 18 19 20 20 21 22 22 23 23 24 24 25 25 26 27 27 28 28 28 29 29 30 30 30 31 31 31 31 32 33 33 33 33 33 34
18 19 19 19 20 21 22 22 23 24 24 25 25 26 26 27 29 29 29 30 30 31 31 31 30 31 31 32 32 32 32 33 33 33 33 33 33 34
19 20 21 21 22 22 23 23 24 25 25 26 27 27 28 29 31 31 31 31 31 31 32 31 31 32 32 32 33 33 33 33 33 33 33 33 33 33
21 21 22 23 23 24 24 25 26 26 27 28 28 29 30 31 31 31 31 31 31 32 31 31 31 32 33 33 33 33 33 33 33 33 33 33 33 34
23 23 24 25 25 25 26 27 27 28 28 29 29 30 30 31 30 31 31 31 31 31 32 32 32 33 33 34 34 33 33 34 34 34 34 34 34 35
23 24 24 25 26 26 27 28 28 29 29 30 31 31 31 31 31 31 31 31 32 32 33 33 33 33 33 33 34 34 34 34 34 34 35 34 34 34
24 24 24 26 26 27 27 28 28 30 30 30 30 30 31 31 30 31 31 32 33 33 33 34 34 34 34 34 34 34 34 33 34 34 34 34 33 33
25 25 26 26 27 28 28 29 30 30 31 31 31 31 31 31 32 32 32 32 33 33 33 34 34 34 34 34 34 34 33 34 34 33 33 33 33 33
26 27 27 27 28 29 30 30 31 31 31 32 31 30 31 31 31 32 32 33 33 33 32 33 34 34 34 34 33 33 34 34 33 32 32 32 32 32
28 28 29 29 29 30 31 32 32 32 32 32 32 32 31 31 32 32 33 33 33 33 33 34 34 34 34 33 33 33 33 32 32 32 32 32 32 31
29 30 30 31 31 32 32 33 33 34 34 34 33 33 32 32 32 33 33 33 32 33 34 34 34 34 34 34 33 33 33 32 32 32 32 32 31 30
31 31 31 32 32 33 33 34 34 34 34 34 33 33 33 33 33 32 33 33 33 33 34 34 34 34 34 34 34 33 33 32 32 32 31 31 30 29
31 32 32 32 32 32 33 34 34 34 34 34 34 34 34 34 34 33 33 33 33 34 34 35 34 34 34 34 34 33 32 32 31 30 30 30 29 28
32 33 33 33 33 34 34 34 35 35 35 34 34 34 34 34 34 34 34 34 35 35 34 34 34 34 33 33 33 32 32 31 30 29 29 28 28 27
33 33 33 33 34 35 35 35 36 35 34 34 34 34 34 35 35 34 34 34 34 33 33 33 33 32 32 32 32 31 30 29 29 28 27 27 27 27
34 34 34 35 35 35 35 35 35 35 34 34 34 33 33 33 33 33 33 33 33 33 32 32 32 32 32 32 31 30 29 28 28 28 28 27 27 27
35 35 35 35 36 36 36 35 35 34 33 33 33 33 33 33 33 33 33 33 33 32 32 31 31 31 31 30 29 29 29 28 28 28 28 27 27 27
35 35 35 35 35 35 35 34 33 33 32 32 32 33 33 33 33 33 33 33 32 32 31 31 31 31 31 30 29 28 28 28 28 27 27 27 27 28
35 35 35 35 35 35 34 33 33 33 33 33 33 33 33 33 33 33 33 32 32 32 31 31 31 30 30 29 29 28 28 28 28 28 28 28 28 28
35 35 34 34 34 34 33 33 34 34 33 33 33 33 33 32 32 32 32 32 32 31 31 30 30 30 30 30 29 29 29 28 29 29 28 29 29 29

GEFSNE_500_meanwind_192.txt.gz
Wind_Speed
14 14 15 16 17 17 18 18 18 19 20 21 21 21 22 22 22 23 24 24 25 25 25 25 26 27 27 27 27 28 29 29 29 30 29 30 31 32
15 15 15 16 17 17 18 18 18 19 19 20 21 21 22 23 23 24 24 24 25 26 26 27 27 28 28 28 29 29 30 30 30 30 31 31 32 34
15 16 16 16 16 17 17 17 18 18 18 19 20 22 23 23 24 24 25 25 26 26 26 27 29 29 30 30 30 31 31 31 31 31 32 32 33 34
16 17 17 18 18 18 18 18 19 20 20 21 22 23 24 24 25 26 26 27 27 28 29 29 30 31 31 32 31 31 32 32 32 32 32 33 33 33
17 17 18 18 18 18 19 20 20 21 22 22 23 24 25 26 26 27 27 28 29 29 30 31 32 32 32 32 32 33 33 34 34 34 34 34 33 34
18 18 19 20 20 20 21 21 22 23 24 24 25 26 27 27 27 28 28 29 29 30 31 32 33 33 33 33 33 33 33 34 34 34 34 34 34 33
18 19 19 20 21 21 22 23 24 24 25 26 27 27 27 28 28 29 29 30 30 31 32 32 32 32 32 32 32 32 33 33 33 33 34 34 34 34
19 19 20 21 22 22 23 24 25 25 26 26 27 28 29 29 29 29 30 31 31 31 31 32 32 32 32 32 32 32 32 32 32 33 34 34 34 34
20 21 22 22 23 23 24 24 25 26 26 26 27 27 28 29 30 30 31 31 31 31 31 32 31 31 32 32 33 33 32 32 33 33 33 33 33 34
20 21 22 23 24 24 25 26 26 26 26 27 27 28 29 29 30 30 31 31 31 30 30 31 31 31 32 32 33 33 33 33 33 33 33 33 33 33
21 22 23 24 24 25 26 27 27 27 28 28 29 30 31 31 31 31 32 32 32 32 32 32 32 32 32 33 33 33 33 33 33 34 34 34 34 34
23 24 24 24 25 26 27 28 28 28 29 30 31 31 31 32 32 32 31 32 32 32 32 32 32 32 33 34 34 34 34 34 34 34 34 34 33 33
24 24 26 26 27 28 29 29 29 30 31 31 31 31 32 32 32 32 32 32 32 33 33 33 33 33 33 34 34 35 34 34 34 34 33 33 33 32
25 26 27 27 28 29 30 30 30 31 31 32 32 32 32 32 32 33 33 33 33 34 34 34 34 34 34 34 34 34 34 34 34 34 33 33 32 32
26 27 27 28 28 29 30 30 31 31 31 32 32 33 33 33 33 33 33 34 34 34 34 34 34 34 34 34 34 33 33 33 33 33 33 33 32 32
28 28 29 29 29 30 30 31 32 32 32 33 33 34 34 33 33 34 34 34 34 34 34 33 33 33 33 33 33 33 33 33 32 32 32 32 31 31
29 29 29 30 30 31 31 31 32 33 33 33 33 33 33 33 34 34 34 34 33 33 33 33 33 33 33 33 32 32 32 32 32 32 32 31 30 30
29 29 30 31 31 31 32 32 33 33 33 33 33 33 33 33 33 33 33 33 33 33 33 32 32 32 32 32 32 32 32 32 32 32 31 31 30 30
30 31 31 32 32 32 32 32 33 33 34 34 34 34 34 33 33 33 33 33 32 32 32 33 32 32 31 31 31 31 31 31 31 31 31 31 30 29
30 31 31 32 32 32 32 32 33 33 33 33 33 33 33 32 32 32 32 32 31 31 32 32 32 32 31 31 31 31 32 31 31 31 31 30 30 29
30 30 31 31 31 31 31 32 33 33 33 32 31 31 31 31 31 31 32 31 31 31 31 31 31 31 31 31 31 31 31 31 31 31 30 30 29 29
31 31 31 31 31 32 32 32 32 31 30 30 30 30 30 30 31 31 31 32 32 32 31 31 31 31 32 32 32 31 31 31 30 30 30 30 29 29
31 31 30 30 31 31 31 31 31 30 29 29 30 30 30 30 31 31 31 31 31 31 31 31 31 31 32 32 32 31 31 31 30 30 30 30 30 29

GEFSNE_500_meanwind_198.txt.gz
Wind_Speed
17 18 19 19 19 19 19 19 19 19 20 22 22 22 22 22 22 23 23 25 26 26 27 27 27 27 28 28 29 30 30 30 31 31 31 32 32 32
18 18 19 19 19 20 20 21 20 21 21 22 22 23 23 24 24 24 24 25 26 27 28 28 28 28 29 30 30 31 32 32 33 33 33 34 34 33
17 18 19 20 20 21 21 21 21 21 21 22 23 24 24 25 26 26 26 27 27 28 29 29 30 30 30 30 31 32 33 33 34 34 35 34 34 34
18 19 20 21 21 21 22 22 22 22 23 23 24 25 25 26 27 27 27 28 29 30 30 30 30 31 32 32 33 34 35 35 34 35 35 35 35 35
19 20 20 21 22 22 22 23 23 24 24 25 25 26 27 28 28 28 29 30 30 31 31 31 32 32 33 34 33 34 35 35 35 35 35 35 35 35
20 20 20 20 21 22 23 24 25 25 26 26 27 28 28 29 29 29 30 30 31 32 32 32 33 33 34 34 35 35 36 36 36 36 36 36 35 35
20 21 21 21 21 22 23 25 26 27 27 28 28 29 29 29 30 30 30 31 32 32 32 32 33 33 34 35 35 35 35 35 35 35 36 36 35 35
21 22 22 22 22 22 23 25 26 27 28 28 29 30 30 30 30 30 31 32 32 33 33 34 34 35 34 34 34 35 35 35 35 35 35 35 34 34
20 21 22 22 23 23 24 25 26 28 28 29 30 31 31 31 31 32 32 33 33 33 33 34 34 34 35 35 35 35 35 36 35 35 35 35 35 34
22 23 23 24 24 25 26 27 27 28 29 31 31 31 31 31 31 33 33 33 34 35 35 34 34 35 36 36 35 35 36 36 35 35 35 35 35 35
23 23 24 25 26 26 27 28 29 29 30 31 32 31 31 32 33 33 34 34 34 35 35 35 35 35 36 36 36 36 36 36 36 36 36 36 35 35
24 25 25 26 26 27 28 28 29 29 30 31 32 32 33 34 34 34 34 35 35 35 35 35 36 36 36 36 36 36 36 36 36 36 36 36 35 35
26 26 27 27 28 28 28 29 29 30 31 31 32 33 33 34 35 35 35 36 36 37 36 36 36 36 36 36 36 36 36 36 37 36 35 34 34 34
27 27 27 27 28 28 29 29 30 30 31 32 32 33 34 35 35 35 35 36 36 36 36 36 36 36 36 36 36 36 35 35 35 36 35 34 34 33
26 27 27 27 28 29 29 30 30 31 32 33 33 34 34 34 35 35 35 35 35 35 35 36 36 35 35 35 35 35 35 34 33 33 34 34 34 33
26 26 27 28 29 30 30 30 31 32 32 33 33 33 33 34 34 35 35 35 35 35 35 36 35 35 35 35 34 34 34 34 34 33 33 34 33 32
27 27 28 29 30 30 31 32 32 33 33 33 33 33 33 34 35 35 35 35 35 35 35 35 34 34 34 34 33 33 33 33 33 33 33 33 32 32
28 29 30 30 30 31 31 32 33 33 33 33 34 34 34 34 34 34 34 34 34 34 34 34 34 34 33 33 33 33 32 33 33 33 33 32 32 31
29 30 31 31 31 32 33 33 33 34 34 34 34 34 34 34 35 35 35 34 34 34 34 34 34 34 34 34 34 33 33 33 33 33 32 32 31 31
30 31 31 32 32 32 33 33 34 34 34 35 35 35 34 34 35 35 35 34 34 34 34 34 34 33 33 33 33 33 33 33 33 32 32 32 31 31
30 30 31 32 32 33 33 33 33 34 34 35 34 34 34 34 34 34 34 33 34 34 34 34 33 33 33 32 32 32 32 33 32 32 32 31 31 30
30 31 31 32 33 33 34 34 34 34 34 34 33 33 33 33 33 33 33 34 34 33 33 33 33 32 32 32 32 32 33 33 33 33 33 32 31 30
31 31 32 32 33 33 33 33 33 33 33 33 33 33 33 33 33 33 34 34 33 33 33 32 32 32 32 33 33 33 33 33 32 32 32 32 31 31

GEFSNE_500_meanwind_204.txt.gz
Wind_Speed
18 19 19 19 20 21 21 21 22 22 23 24 24 24 23 24 24 24 24 24 25 26 26 26 27 27 27 27 27 27 28 28 28 28 29 30 30 31
17 18 19 19 20 21 22 22 23 24 24 24 23 24 24 24 24 25 25 25 26 26 26 26 27 28 28 29 29 29 29 30 30 30 30 31 32 32
18 18 18 19 19 20 21 21 23 23 24 24 23 24 24 24 25 25 25 26 26 27 27 27 28 29 29 30 30 30 30 30 31 31 32 33 33 33
18 19 19 19 20 20 21 22 22 23 23 24 24 25 25 26 26 27 26 27 28 28 28 28 29 30 30 31 31 31 32 32 33 33 34 35 34 35
18 18 19 19 20 21 22 22 23 23 23 24 25 26 27 28 28 28 28 28 29 29 30 30 31 31 31 31 31 32 33 34 34 35 36 36 36 36
19 19 20 21 21 22 23 23 23 23 24 25 26 27 28 29 30 29 30 30 31 31 32 32 32 32 32 32 33 33 34 35 35 36 37 37 36 36
20 20 20 21 22 22 23 23 23 24 25 26 27 28 29 30 31 31 31 32 32 32 33 33 34 34 33 34 34 34 35 35 35 36 37 37 36 36
21 21 21 22 22 23 23 24 24 25 26 27 28 29 30 30 30 30 31 32 32 33 34 34 35 35 35 35 35 35 36 36 36 36 35 35 35 35
21 22 22 23 23 23 24 25 25 26 26 27 28 29 30 30 31 31 32 32 33 33 34 34 35 35 36 36 36 35 36 36 36 36 36 35 35 34
23 23 23 24 24 24 25 26 26 26 26 27 28 29 30 30 31 31 32 32 33 33 34 34 34 34 35 36 36 36 36 37 37 37 36 36 35 35
24 24 24 24 25 25 26 26 27 28 28 28 28 29 30 30 31 31 32 33 33 33 34 34 35 35 35 35 35 36 36 36 36 36 36 36 36 36
24 25 24 25 25 26 25 25 26 27 28 28 29 29 29 30 30 31 32 33 33 33 34 34 35 35 35 35 35 35 35 36 36 36 35 35 35 35
25 25 25 25 25 26 26 26 27 27 28 28 29 30 30 30 31 32 32 33 33 33 34 34 35 35 35 35 35 35 35 35 34 34 34 34 34 34
25 25 25 25 25 25 26 26 27 27 28 29 29 29 30 30 31 32 32 32 32 33 33 33 34 34 35 35 34 34 33 33 33 33 33 34 33 33
26 25 25 25 26 26 26 27 27 28 28 28 29 29 30 31 31 32 32 32 32 33 33 33 33 34 34 34 34 33 32 32 32 32 32 33 33 33
26 26 26 26 27 27 27 27 27 28 28 29 29 30 30 31 31 32 32 32 33 33 34 33 34 34 33 33 33 33 33 32 31 31 31 31 31 32
27 27 27 27 27 27 27 28 28 29 29 30 30 31 31 31 31 31 32 33 33 33 34 34 34 33 33 33 32 32 31 31 31 31 31 30 30 30
27 27 27 27 27 27 28 29 29 30 30 31 31 31 32 32 32 32 32 32 33 33 33 33 33 33 33 32 31 31 31 30 30 30 30 31 31 30
27 27 27 27 28 28 29 30 30 30 31 31 31 32 32 32 33 32 32 32 33 33 33 33 32 32 32 31 30 30 30 30 31 30 30 30 30 31
27 27 28 28 28 29 29 30 30 30 31 31 32 32 32 32 32 32 32 32 32 32 32 32 32 32 31 31 31 30 30 31 30 30 30 30 30 31
28 28 28 29 29 29 30 30 31 31 31 32 32 32 32 32 31 32 32 32 32 31 31 31 31 31 31 31 31 30 30 30 30 30 30 30 30 30
29 29 29 29 30 30 30 31 31 31 31 32 32 31 31 31 31 31 31 31 31 31 31 31 30 30 30 30 29 29 29 29 30 30 29 29 29 29
29 30 30 30 31 31 31 32 32 31 31 31 31 31 30 30 31 31 31 31 31 31 30 30 29 29 29 29 29 29 29 30 30 29 28 28 28 28